This is the latest recevied weather packets stored in our database for station/object G0TGD-10. If no packets are shown the sender has not sent any weather packets the latest 10 day(s).
| Time | Temp. | Humidity | Pressure | Rain* | Wind** | Luminosity | Snow |
|---|---|---|---|---|---|---|---|
| 1778116893 | 3.33° C | 71% | 1016.3 hPa | - | - | - | - |
| 1778115993 | 3.33° C | 71% | 1016.3 hPa | - | - | - | - |
| 1778115092 | 3.89° C | 71% | 1016.2 hPa | - | - | - | - |
| 1778114192 | 3.89° C | 71% | 1016.3 hPa | - | - | - | - |
| 1778113292 | 3.89° C | 71% | 1016.4 hPa | - | - | - | - |
| 1778112392 | 3.89° C | 71% | 1016.4 hPa | - | - | - | - |
| 1778111492 | 4.44° C | 70% | 1016.4 hPa | - | - | - | - |
| 1778110592 | 5° C | 70% | 1016.3 hPa | - | - | - | - |
| 1778109692 | 5° C | 70% | 1016.4 hPa | - | - | - | - |
| 1778108792 | 5° C | 70% | 1016.4 hPa | - | - | - | - |
| 1778107892 | 5° C | 70% | 1016.5 hPa | - | - | - | - |
| 1778106992 | 4.44° C | 71% | 1016.4 hPa | - | - | - | - |
| 1778106092 | 4.44° C | 70% | 1016.3 hPa | - | - | - | - |
| 1778105191 | 5° C | 70% | 1016.3 hPa | - | - | - | - |
| 1778104291 | 5° C | 70% | 1016.3 hPa | - | - | - | - |
| 1778103391 | 5.56° C | 70% | 1016.1 hPa | - | - | - | - |
| 1778102491 | 6.11° C | 68% | 1016 hPa | - | - | - | - |
| 1778101591 | 6.67° C | 67% | 1016.1 hPa | - | - | - | - |
| 1778100691 | 6.67° C | 67% | 1016.2 hPa | - | - | - | - |
| 1778099791 | 6.67° C | 67% | 1016 hPa | - | - | - | - |
| 1778098891 | 6.67° C | 67% | 1015.9 hPa | - | - | - | - |
| 1778097991 | 7.22° C | 67% | 1015.8 hPa | - | - | - | - |
| 1778097091 | 7.22° C | 66% | 1015.6 hPa | - | - | - | - |
| 1778096191 | 7.78° C | 66% | 1015.6 hPa | - | - | - | - |
| 1778095324 | 7.78° C | 65% | 1015.5 hPa | - | - | - | - |
* Rain since midnight (hover to see other rain measurements)
** Current wind speed in m/s (hover to see current wind gust speed)